[[{"header":{"parameterUnit":"m.s-1","parameterCategory":1,"la1":30.2991,"la2":30.254,"lo1":-89.0895,"lo2":-89.0444,"dy":0.0017,"dx":0.0017,"nx":28,"ny":28,"refTime":"2025-11-12T03:00:00:Z","depth":0,"parameterNumber":2,"parameterNumberName":"U-component_of_WINDS"},"data":[0,0,0,0,0,0,0,0,0,0,0,0,0,0,0,0,0,0,0,0,0,0,0,0,0,0,0,0,0,0,0,0,0,0,0,0,0,0,0,0,0,0,0,0,0,0,0,0,0,0,0,0,0,0,0,0,0,0,2.7984,2.7986,0,2.8128,2.8129,2.8131,2.8117,2.8115,2.8113,2.8111,2.8254,2.826,2.8265,0,0,0,0,0,0,0,0,0,0,0,0,0,2.7691,2.7697,2.7984,2.7986,2.7987,2.8127,2.8129,2.8131,2.8117,2.8115,2.8112,2.811,2.8252,2.8259,2.8266,0,0,0,0,0,0,0,0,0,0,0,0,0,2.7825,2.7698,2.7984,2.7998,2.8,2.8127,2.8129,2.8132,2.8118,2.8115,2.8111,2.8108,2.825,2.8258,2.8267,2.8388,0,0,2.8294,2.8298,0,0,0,0,0,0,0,0,2.7817,2.7836,2.7994,2.7997,2.8,2.8101,2.8079,2.8217,2.8119,2.8073,2.8111,2.8107,2.8205,2.8218,2.8252,2.8394,2.84,2.8295,2.83,2.8304,2.8306,0,0,0,0,0,0,0,2.7808,2.7829,2.8041,2.7996,2.8,2.7994,2.801,2.8105,2.8156,2.8077,2.8076,2.8094,2.8206,2.8243,2.8255,2.8403,2.8294,2.8302,2.8308,2.8311,2.8645,2.8648,0,0,0,0,0,0,2.7796,2.7822,2.8036,2.8045,2.7899,2.8002,2.802,2.8072,2.8155,2.8165,2.8096,2.8092,2.823,2.8245,2.826,2.8402,2.8304,2.8312,2.8317,2.8641,2.8646,2.865,0,0,0,0,0,0,2.779,2.7815,2.803,2.7933,2.796,2.8011,2.807,2.8077,2.8113,2.817,2.8178,2.8125,2.8228,2.8248,2.8355,2.8407,2.8316,2.8324,2.8637,2.8643,2.8648,2.869,0,0,0,0,0,0,2.7782,2.7813,2.7862,2.7934,2.7965,2.8125,2.8073,2.8082,2.8129,2.8125,2.8199,2.8208,2.8227,2.8342,2.8364,2.8417,2.8331,2.8633,2.864,2.8646,2.8684,2.8696,2.8706,0,0,0,0,0,2.7771,2.7868,2.7864,2.789,2.8027,2.8128,2.8145,2.8166,2.8133,2.818,2.8216,2.8205,2.8399,2.8353,2.8377,2.8435,2.8629,2.8638,2.8645,2.8679,2.8694,2.8706,0,0,0,0,0,0,2.78,2.7878,2.7874,2.7998,2.8056,2.8125,2.8186,2.8182,2.825,2.8244,2.8266,2.8282,2.8389,2.8423,2.8371,2.8553,2.8509,2.8522,2.8526,2.8541,2.8552,2.8539,2.8338,0,0,0,0,0,2.7821,2.7898,2.7962,2.8065,2.8094,2.8135,2.818,2.8191,2.8251,2.8276,2.8319,2.8377,2.845,2.8498,2.8569,2.869,2.8703,2.8741,2.8752,2.8761,2.8771,2.8832,2.8848,2.8676,2.8676,2.8676,0,0,2.7864,2.7916,2.7964,2.8071,2.8118,2.8194,2.8156,2.824,2.8295,2.8288,2.839,2.8425,2.849,2.8603,2.8655,2.8635,2.8822,2.8771,2.8778,2.8783,2.8842,2.8858,2.8872,2.8681,2.868,2.868,0,0,2.7981,2.8031,2.8119,2.8166,2.8237,2.8263,2.8284,2.8353,2.8375,2.8479,2.8474,2.854,2.8667,2.8712,2.8752,2.8883,2.8873,2.8905,2.8962,2.9021,2.9035,2.9047,2.9088,2.9103,2.8916,2.8916,2.8916,0,2.8026,2.8143,2.8165,2.8248,2.8293,2.8291,2.8378,2.8423,2.8512,2.8542,2.8519,2.8675,2.872,2.884,2.8872,2.8906,2.8927,2.8895,2.9031,2.9044,2.9055,2.9095,2.9111,2.8919,2.8919,2.8918,2.8918,0,2.8191,2.8272,2.8334,2.842,2.8473,2.8558,2.8591,2.8641,2.8647,2.8674,2.8777,2.8831,2.891,2.894,2.8948,2.9061,2.9045,2.9027,2.8982,2.9074,2.9111,2.9127,2.8923,2.8922,2.8921,2.8921,0,0,2.833,2.8425,2.8447,2.8484,2.856,2.8622,2.8705,2.8783,2.8823,2.8885,2.8952,2.9058,2.904,2.9085,2.9097,2.915,2.9243,2.9124,2.9126,2.914,2.9365,2.9375,2.9393,2.9239,2.9242,2.9244,2.9358,0,2.845,2.8598,2.862,2.8749,2.8821,2.8818,2.889,2.8943,2.897,2.9033,2.9064,2.9136,2.911,2.9136,2.9188,2.9221,2.9288,2.9213,2.9297,2.93,2.9277,2.9413,2.9426,2.953,2.9373,2.9376,2.9378,0,2.8611,2.8676,2.8812,2.8874,2.8905,2.897,2.904,2.9102,2.916,2.9176,2.9225,2.923,2.9312,2.9267,2.9378,2.9327,2.9363,2.9384,2.9388,2.9393,2.9341,2.9417,2.9564,2.9578,2.9402,2.94,2.9398,0,2.8691,2.8813,2.8909,2.8942,2.9018,2.9062,2.9096,2.9151,2.9195,2.9257,2.9284,2.9355,2.9392,2.9445,2.9467,2.9433,2.9575,2.9533,2.9587,2.9586,2.9614,2.9611,2.9764,2.9645,2.9645,2.9645,2.9644,0,2.8822,2.8904,2.8946,2.9004,2.9095,2.9118,2.9206,2.9238,2.9287,2.9349,2.9352,2.941,2.9438,2.95,2.9518,2.9604,2.9622,2.9634,2.9637,2.9632,2.9629,2.9652,2.9644,2.9649,2.9648,2.9647,2.9646,0,2.8926,2.8958,2.9061,2.9125,2.9142,2.9206,2.9259,2.9314,2.934,2.9419,2.9438,2.9479,2.9551,2.958,2.9668,2.968,2.9778,2.9778,2.9758,2.9758,2.9808,2.9801,2.9977,2.9999,2.987,2.9871,2.9872,0,2.9004,2.9067,2.9137,2.9179,2.9213,2.9282,2.9326,2.935,2.9396,2.9465,2.951,2.9583,2.9641,2.9756,2.9792,2.9858,2.9857,2.9914,2.9866,2.9857,2.9851,2.9845,2.9849,2.9921,2.9922,2.9923,2.9924,0,2.9139,2.9151,2.9215,2.9284,2.9336,2.9392,2.9445,2.9479,2.9511,2.9561,2.9635,2.968,2.9769,2.9839,2.9907,2.9939,2.9935,2.9939,2.9954,2.9947,2.9931,2.9935,2.9777,2.9934,2.9933,2.9933,2.9932,2.9932,2.9229,2.9283,2.9339,2.9409,2.9452,2.9501,2.9554,2.9587,2.9649,2.9723,2.9734,2.9811,2.9864,2.9955,2.999,3.0049,3.0033,3.0057,3.0062,3.0066,3.0066,2.9925,3.0062,3.0062,3.0061,3.0061,3.0061,0,2.9359,2.9394,2.9459,2.9533,2.9587,2.9581,2.9639,2.9684,2.9752,2.9803,2.986,2.9942,3.0009,3.005,3.0116,3.0155,3.0155,3.0171,3.0166,3.0173,3.0079,3.0057,3.017,3.017,3.017,3.017,3.017,3.017,2.9433,2.9521,2.954,2.9648,2.9683,2.9759,2.9792,2.9836,2.9875,2.9967,3.0022,3.0049,3.0094,3.0164,3.0223,3.0234,3.0256,3.0273,3.0281,3.0192,3.018,3.0169,3.0148,3.0279,3.0279,3.0369,3.037,3.037]},{"header":{"parameterUnit":"m.s-1","parameterCategory":1,"la1":30.2991,"la2":30.254,"lo1":-89.0895,"lo2":-89.0444,"dy":0.0017,"dx":0.0017,"nx":28,"ny":28,"refTime":"2025-11-12T03:00:00:Z","depth":0,"parameterNumber":3,"parameterNumberName":"V-component_of_WINDS"},"data":[0,0,0,0,0,0,0,0,0,0,0,0,0,0,0,0,0,0,0,0,0,0,0,0,0,0,0,0,0,0,0,0,0,0,0,0,0,0,0,0,0,0,0,0,0,0,0,0,0,0,0,0,0,0,0,0,0,0,2.057,2.0571,0,2.0609,2.0609,2.061,2.0539,2.0537,2.0535,2.0532,2.0573,2.0577,2.058,0,0,0,0,0,0,0,0,0,0,0,0,0,2.0434,2.0437,2.057,2.0571,2.0571,2.0609,2.0609,2.061,2.054,2.0537,2.0534,2.0531,2.0572,2.0576,2.058,0,0,0,0,0,0,0,0,0,0,0,0,0,2.0485,2.0438,2.057,2.0541,2.0538,2.0609,2.0609,2.061,2.054,2.0537,2.0533,2.053,2.0571,2.0576,2.0581,2.0682,0,0,2.0596,2.0598,0,0,0,0,0,0,0,0,2.0482,2.049,2.0544,2.0543,2.054,2.0566,2.0576,2.0634,2.0541,2.054,2.0532,2.0528,2.0574,2.0578,2.0593,2.0684,2.0686,2.0596,2.0599,2.0601,2.0603,0,0,0,0,0,0,0,2.0479,2.0488,2.0585,2.0545,2.0543,2.0525,2.0528,2.0587,2.0576,2.054,2.0534,2.054,2.0572,2.0589,2.0594,2.0686,2.0596,2.0601,2.0604,2.0606,2.0857,2.0861,0,0,0,0,0,0,2.0479,2.0486,2.0584,2.0587,2.0502,2.053,2.0534,2.0561,2.0575,2.0574,2.0543,2.0536,2.0582,2.0588,2.0595,2.0711,2.0601,2.0606,2.0609,2.0853,2.0858,2.0862,0,0,0,0,0,0,2.0476,2.0488,2.0583,2.0535,2.0545,2.0536,2.0567,2.0564,2.058,2.0578,2.0576,2.0562,2.058,2.0588,2.066,2.0712,2.0608,2.0613,2.0849,2.0855,2.086,2.0947,0,0,0,0,0,0,2.0473,2.0488,2.0527,2.0536,2.0548,2.0648,2.0571,2.0567,2.0589,2.0581,2.0595,2.0594,2.0577,2.0653,2.0665,2.0717,2.0617,2.0844,2.0852,2.0858,2.094,2.0955,2.0968,0,0,0,0,0,2.0468,2.0552,2.0529,2.0542,2.0597,2.0651,2.0658,2.0636,2.0594,2.0632,2.0629,2.0594,2.0704,2.0661,2.0674,2.0728,2.0841,2.085,2.0858,2.0933,2.0952,2.0968,0,0,0,0,0,0,2.0551,2.0552,2.0528,2.0617,2.0634,2.0639,2.0687,2.0658,2.0688,2.0679,2.0652,2.0655,2.0732,2.0737,2.0689,2.0824,2.0765,2.0777,2.0818,2.0836,2.085,2.0847,2.0621,0,0,0,0,0,2.0579,2.0623,2.0622,2.07,2.071,2.0697,2.072,2.0701,2.0718,2.0726,2.0729,2.0747,2.0785,2.0811,2.0846,2.094,2.094,2.0983,2.0997,2.1009,2.1019,2.1065,2.1083,2.0889,2.0889,2.0889,0,0,2.0639,2.0645,2.0675,2.0717,2.0728,2.0773,2.0704,2.0756,2.0788,2.0734,2.08,2.0803,2.0821,2.0903,2.0939,2.091,2.1073,2.102,2.1029,2.1033,2.1076,2.1094,2.111,2.0895,2.0894,2.0893,0,0,2.077,2.078,2.0844,2.0856,2.0872,2.0863,2.0878,2.0887,2.0886,2.0952,2.0911,2.0949,2.1017,2.103,2.1045,2.1176,2.1143,2.1189,2.1263,2.1308,2.1324,2.1337,2.1381,2.1398,2.1199,2.1199,2.1199,0,2.0842,2.0908,2.0881,2.0934,2.0953,2.0903,2.0967,2.098,2.1008,2.1022,2.0988,2.1068,2.1077,2.116,2.1191,2.1207,2.1221,2.1187,2.1324,2.1337,2.1349,2.139,2.1407,2.1204,2.1203,2.1203,2.1202,0,2.0994,2.104,2.109,2.1115,2.1139,2.1198,2.1179,2.1207,2.1185,2.1178,2.1245,2.1253,2.1287,2.1306,2.1287,2.1384,2.1365,2.1328,2.1268,2.1373,2.1411,2.1427,2.1211,2.121,2.1208,2.1207,0,0,2.1181,2.1187,2.1206,2.1215,2.1228,2.1263,2.1317,2.1349,2.1372,2.1392,2.1436,2.1492,2.1457,2.1474,2.1455,2.1495,2.1594,2.1453,2.1453,2.1477,2.17,2.1726,2.1745,2.1573,2.1576,2.1578,2.1697,0,2.1308,2.1401,2.1377,2.147,2.151,2.1461,2.1508,2.1521,2.1515,2.1548,2.1542,2.1581,2.1532,2.1542,2.1579,2.1575,2.1639,2.1566,2.1612,2.1614,2.1608,2.1766,2.1795,2.1907,2.1712,2.1715,2.1717,0,2.1471,2.1494,2.1589,2.1591,2.1607,2.165,2.1675,2.1708,2.1719,2.1712,2.173,2.1702,2.1754,2.1693,2.1764,2.1715,2.1732,2.1732,2.1736,2.1738,2.1671,2.1771,2.1943,2.1959,2.1741,2.1739,2.1737,0,2.1594,2.1649,2.1712,2.1722,2.1727,2.1757,2.176,2.1769,2.1788,2.181,2.1822,2.185,2.1866,2.1888,2.1868,2.1826,2.194,2.1879,2.1934,2.1935,2.196,2.1959,2.2136,2.1974,2.1974,2.1973,2.1973,0,2.1738,2.1798,2.1767,2.1806,2.187,2.1841,2.1906,2.1904,2.191,2.1947,2.1908,2.1943,2.1915,2.1947,2.1932,2.199,2.1998,2.1993,2.1988,2.1996,2.1996,2.2006,2.1997,2.1978,2.1977,2.1976,2.1975,0,2.1887,2.1869,2.1934,2.1931,2.1932,2.1979,2.1977,2.2012,2.2002,2.2048,2.2058,2.2042,2.2078,2.206,2.2098,2.2087,2.2162,2.2147,2.2158,2.2153,2.2209,2.2203,2.2397,2.242,2.2245,2.2247,2.2249,0,2.198,2.2024,2.2025,2.2045,2.205,2.2085,2.2103,2.2076,2.2096,2.211,2.2143,2.2175,2.2199,2.2258,2.225,2.2278,2.2263,2.2328,2.2267,2.2272,2.2261,2.2258,2.2261,2.2341,2.2343,2.2345,2.2346,0,2.2145,2.2133,2.216,2.2183,2.2206,2.2223,2.2238,2.2257,2.2229,2.2254,2.2289,2.2307,2.2343,2.2375,2.2398,2.2401,2.2368,2.2365,2.2379,2.2387,2.239,2.2387,2.219,2.2361,2.236,2.2358,2.2358,2.2357,2.2267,2.2302,2.2307,2.2338,2.2345,2.2358,2.2389,2.2382,2.241,2.2436,2.2418,2.2458,2.2465,2.2493,2.2499,2.253,2.2504,2.2525,2.253,2.2535,2.2541,2.2386,2.2535,2.2534,2.2534,2.2533,2.2533,0,2.2428,2.2428,2.2456,2.2475,2.2499,2.2464,2.2477,2.2499,2.2535,2.2544,2.2567,2.2605,2.2634,2.2627,2.2653,2.2679,2.2664,2.2686,2.2684,2.2684,2.2564,2.2549,2.2697,2.2697,2.2697,2.2697,2.2697,2.2697,2.2515,2.2571,2.2559,2.2618,2.2617,2.2655,2.2664,2.2676,2.2682,2.2726,2.2749,2.2743,2.2745,2.277,2.2795,2.2792,2.2802,2.283,2.2821,2.2709,2.2693,2.2678,2.2662,2.2833,2.2833,2.2938,2.2939,2.294]}]]